Regional Weather Roundup
Issued by NWS

Home | Current Version | Previous Version | Text Only | Print | Product List | Glossary On
Versions: 1 2 3 4 5 6 7 8 9 10 11 12 13 14 15 16 17 18 19 20 21 22 23 24 25 26 27 28 29 30 31 32 33 34 35 36 37 38 39 40 41 42 43 44 45 46 47 48 49 50
000
ASUS45 KTFX 240919
RWRMT
MONTANA HOURLY WEATHER ROUNDUP
NATIONAL WEATHER SERVICE GREAT FALLS MT
319 AM MDT FRI OCT 24 2014

NOTE: "FAIR" INDICATES FEW OR NO CLOUDS BELOW 12000 FEET WITH NO
SIGNIFICANT WEATHER AND/OR OBSTRUCTIONS TO VISIBILITY.

* THESE STATIONS ARE NOT UNDER NWS QUALITY CONTROL. THEY DO NOT
   REPORT WEATHER SUCH AS PRECIPITATION OR FOG.

MTZ001>007-043-241000-
WEST OF THE DIVIDE
CITY           SKY/WX    TMP DP  RH WIND       PRES   REMARKS
KALISPELL      CLOUDY    46  37  71 S7        29.98R
MISSOULA       CLOUDY    46  43  89 W3        30.05R
BUTTE          MOCLDY    41  37  86 CALM      30.03R
MULLAN PASS    CLOUDY    34  30  85 W9G21     30.01S WCI  27
* ESSEX        N/A       40  39  96 SW1        N/A
* LINCOLN      N/A       42  39  89 S3         N/A
* POLSON       N/A       42  37  83 S2G8       N/A
* RONAN APT    CLOUDY    45  39  80 N/A        N/A
* SEELEY LAKE  N/A       41  40  96 NE3        N/A
* THOMP F APT  CLOUDY    44  35  71 SE7G12     N/A
$$

MTZ008-052>055-241000-
SOUTHWEST MONTANA
CITY           SKY/WX    TMP DP  RH WIND       PRES   REMARKS
BOZEMAN        CLOUDY    55  36  49 W10       29.98R
DILLON         CLOUDY    48  36  63 CALM      30.02S
W YELLOWSTONE  CLOUDY    45  32  60 SW12G28   30.13R
* THREE FORKS  CLOUDY    54  50  86 N/A        N/A
* BOULDER HILL N/A       46  35  66 S10G15     N/A
* MONIDA PASS  N/A       40  35  82 SE12       N/A   WCI  33
* RAYNOLDS PAS N/A       45  26  47 SE8        N/A
* WHITEHALL    N/A       51  38  61 NW8G17     N/A
* WISE RIVER   N/A       42  37  83 W7         N/A
$$

MTZ009>010-012-014-046-048-049-054-241000-
EAST SLOPES AND CENTRAL MONTANA
CITY           SKY/WX    TMP DP  RH WIND       PRES   REMARKS
CUT BANK       CLOUDY    45  34  65 W40G54    29.83R
GREAT FALLS    CLEAR     46  36  68 SW15      29.91R
HELENA         CLOUDY    50  37  61 CALM      29.98R
MALMSTROM AFB  CLEAR     48  36  63 SW15G24   29.92R
* CONRAD       MOCLDY    48  32  54 SW13G20    N/A
* DEARBORN     N/A       52  36  55 SW4G9      N/A
* EAST GLACIER N/A       37  35  92 W14G22     N/A   WCI  28
* MONARCH      N/A       45  28  51 SW17       N/A
* PENDROY      N/A       47  27  46 W26G39     N/A
* ROGERS PASS  N/A       40  36  86 SE17G23    N/A   WCI  31
* SAINT MARY   N/A       41  35  79 SW8G19     N/A
* SWEET GRASS  N/A       46  31  56 W29G39     N/A
* WHITE SULPH  N/A       45  38  77 NE4G14     N/A
$$

MTZ011-013-016-021-035-040-045-047-050-051-241000-
NORTH CENTRAL MONTANA
CITY           SKY/WX    TMP DP  RH WIND       PRES   REMARKS
HAVRE          MOCLDY    52  39  61 SW14      29.84R
LEWISTOWN      MOCLDY    48  39  71 SW16      29.92R
* CHINOOK      MOCLDY    54  39  57 SW13G18   29.83R
* FORT BENTON  CLEAR     50  36  59 SW7       29.90R
* CHESTER      N/A       42  36  79 S1         N/A
* DENTON       N/A       48  36  63 SW14       N/A
* GEYSER       N/A       49  32  52 SW14       N/A
* JUDITH GAP   N/A       44  39  83 NE11       N/A
* LOMA         N/A       53  38  57 SW9G16     N/A
$$

MTZ017>020-022>027-061-062-241000-
NORTHEAST MONTANA
CITY           SKY/WX    TMP DP  RH WIND       PRES   REMARKS
GLASGOW        CLOUDY    48  43  83 SE5       29.81R
GLENDIVE       MOCLDY    43  34  71 S6        29.85S
JORDAN         CLOUDY    52  36  55 W6        29.85R
SIDNEY         MOCLDY    43  36  76 S6        29.83F
WOLF POINT     CLOUDY    46  39  77 SW5       29.81R
* BEAVER HILL  N/A       53  33  47 S12        N/A
* CIRCLE       N/A       48  38  68 N/A        N/A
* LINDSAY DVD  N/A       53  36  53 SW7        N/A
* NAVAJO       N/A       55  38  53 W19G26     N/A
$$

MTZ028>042-056>058-241000-
SOUTHCENTRAL AND SOUTHEAST MONTANA
CITY           SKY/WX    TMP DP  RH WIND       PRES   REMARKS
BAKER          CLOUDY    39  30  70 CALM      29.87S
BILLINGS       PTCLDY    54  28  37 NW8       29.91R
LIVINGSTON     CLOUDY    61  34  36 SW24G36   29.95R
MILES CITY     CLOUDY    45  34  65 S7        29.86R
* LAUREL APT   PTCLDY    55  27  34 N/A        N/A
* ROUNDUP APT  MOCLDY    50  30  46 N/A        N/A
* ALZADA       N/A       44  29  56 NW2        N/A
* HYSHAM       N/A       53  26  35 W3         N/A
* LAME DEER    N/A       57  26  30 SW3        N/A
* REED POINT   N/A       41  33  73 N/A        N/A
* ROSCOE HILL  N/A       58  23  26 SW4G24     N/A
$$

REGIONAL REPORTS...DAKOTAS
CITY           SKY/WX    TMP DP  RH WIND       PRES   REMARKS
WILLISTON      MOCLDY    43  36  76 S5        29.79S
DICKINSON      CLOUDY    48  34  59 W10       29.83R
BEACH          N/A       41  36  82 CALM      29.85S
CROSBY         CLEAR     45  39  80 S12       29.75S
TIOGA          CLEAR     39  37  93 CALM      29.81R
BISMARCK       CLOUDY    45  32  60 CALM      29.82R
GRAND FORKS    CLOUDY    45  37  74 SW5       29.74S
FARGO          CLOUDY    50  43  77 S9        29.79F
BUFFALO SD     CLOUDY    52  27  38 W7        29.82S
RAPID CITY     MOCLDY    48  30  50 W7        29.90F
$$

REGIONAL REPORTS...WYOMING/IDAHO/WASHINGTON
CITY           SKY/WX    TMP DP  RH WIND       PRES   REMARKS
GILLETTE       CLOUDY    55  25  31 W13       29.94S
SHERIDAN       MOCLDY    43  30  60 NW6       29.92S
CODY           CLOUDY    59  28  31 SE5       30.00R
YELLOWSTONE LA MOCLDY    41  28  60 VRB3      30.19S
SALMON         CLOUDY    50  39  66 CALM      30.03R
MULLAN PASS    CLOUDY    34  30  85 W9G21     30.01S WCI  27
SAND POINT     CLOUDY    46  45  96 SW5       30.00R
SPOKANE        CLOUDY    45  39  80 SW14      30.01R
$$

REGIONAL REPORTS...ALBERTA
CITY           SKY/WX    TMP DP  RH WIND       PRES   REMARKS
CALGARY        FAIR      46  21  37 W6        29.72R
LETHBRIDGE     CLEAR     43  32  65 W17G23    29.81R
MEDICINE HAT   CLEAR     48  37  66 SW17G25   29.73R
EDMONTON       MOCLDY    43  32  65 W13       29.69R
WATERTON GATE  N/A       45  27  49 W20G32     N/A
CARDSTON       N/A       41  34  76 S10        N/A
MILK RIVER     N/A       46  34  63 W26G32     N/A
$$

REGIONAL REPORTS...SASKATCHEWAN
CITY           SKY/WX    TMP DP  RH WIND       PRES   REMARKS
SWIFT CURRENT  FAIR      55  30  39 SW28G39   29.66S
REGINA         MOCLDY    48  43  83 S10       29.67F
VAL MARIE      N/A       48  39  71 W10        N/A
ASSINIBOIA     N/A       54  41  62 SW17G23    N/A

$$




USA.gov is the U.S. government's official web portal to all federal, state and local government web resources and services.